Le nostre stazioni meteo in Italia

Pubblicità
Il mio iltempo24.it
Threave, Gran Bretagna (99090): Temperatura & dewpoint: 16.10.2018 07:00:00 - 22.10.2018 07:00:00 (BST)Threave, Gran Bretagna (99090): Temperatura -20cm & Temperatura -100cm: 16.10.2018 07:00:00 - 22.10.2018 07:00:00 (BST)Threave, Gran Bretagna (99090): precipitazioni: 16.10.2018 07:00:00 - 22.10.2018 07:00:00 (BST)
Data & Tempo tt [°C] td [°C] tt -20cm [°C] tt -100cm [°C] rr [mm]
22.10.2018 07:00:00 6,0 3,5 - - 0,0
22.10.2018 06:00:00 6,1 3,0 - - 0,0
22.10.2018 05:00:00 6,9 2,8 - - 0,0
22.10.2018 04:00:00 6,0 2,6 - - 0,0
22.10.2018 03:00:00 7,0 3,7 - - 0,0
22.10.2018 02:00:00 6,8 5,0 - - 0,0
22.10.2018 01:00:00 5,3 3,7 - - 0,0
22.10.2018 00:00:00 5,7 3,3 - - 0,0
21.10.2018 23:00:00 6,9 3,9 - - 0,0
21.10.2018 22:00:00 6,4 3,4 - - 0,0
21.10.2018 21:00:00 6,2 2,9 - - 0,0
21.10.2018 20:00:00 8,2 3,5 - - 0,0
21.10.2018 19:00:00 9,8 4,3 - - 0,0
21.10.2018 18:00:00 10,6 5,8 - - 0,0
21.10.2018 17:00:00 11,7 6,4 - - 0,0
21.10.2018 16:00:00 12,6 8,9 - - 0,0
21.10.2018 15:00:00 12,1 8,8 - - 0,0
21.10.2018 14:00:00 11,5 8,5 - - 0,0
21.10.2018 13:00:00 12,3 9,4 - - 0,0
21.10.2018 12:00:00 12,4 10,1 - - 0,0
21.10.2018 11:00:00 12,6 11,5 - - 0,6
21.10.2018 10:00:00 13,4 13,2 11,7 12,0 0,0
21.10.2018 09:00:00 13,3 13,1 - - 0,0
21.10.2018 08:00:00 13,3 13,1 - - 0,0
21.10.2018 07:00:00 13,3 13,0 - - 0,4
21.10.2018 06:00:00 13,4 12,9 - - 0,6
21.10.2018 05:00:00 13,8 12,7 - - 0,0
21.10.2018 04:00:00 13,8 12,7 - - 0,0
21.10.2018 03:00:00 13,6 12,8 - - 0,0
21.10.2018 02:00:00 13,6 12,9 - - 0,0
21.10.2018 01:00:00 13,7 12,9 - - 0,0
21.10.2018 00:00:00 13,6 12,9 - - 0,0
20.10.2018 23:00:00 13,5 12,7 - - 0,0
20.10.2018 22:00:00 13,3 12,5 - - 0,0
20.10.2018 21:00:00 13,0 12,4 - - 0,0
20.10.2018 20:00:00 12,9 12,5 - - 0,0
20.10.2018 19:00:00 12,8 12,2 - - 0,0
20.10.2018 18:00:00 12,7 12,2 - - 0,0
20.10.2018 17:00:00 12,6 11,9 - - 0,0
20.10.2018 16:00:00 13,2 11,4 - - 0,0
20.10.2018 15:00:00 13,7 11,6 - - 0,0
20.10.2018 14:00:00 13,6 11,9 - - 0,0
20.10.2018 13:00:00 13,2 12,2 - - 0,0
20.10.2018 12:00:00 12,9 12,2 - - 0,0
20.10.2018 11:00:00 12,7 12,4 - - 0,2
20.10.2018 10:00:00 12,5 12,1 11,0 12,2 0,4
20.10.2018 09:00:00 12,2 11,8 - - 0,0
20.10.2018 08:00:00 12,0 11,2 - - 0,0
20.10.2018 07:00:00 12,4 10,9 - - 0,0
20.10.2018 06:00:00 12,2 11,0 - - 0,0
20.10.2018 05:00:00 12,1 11,4 - - 0,0
20.10.2018 04:00:00 11,8 11,2 - - 0,0
20.10.2018 03:00:00 11,7 11,2 - - 0,2
20.10.2018 02:00:00 11,8 11,4 - - 0,2
20.10.2018 01:00:00 11,7 11,2 - - 0,0
20.10.2018 00:00:00 11,7 11,1 - - 0,0
19.10.2018 23:00:00 11,4 10,9 - - 0,0
19.10.2018 22:00:00 11,3 10,7 - - 0,0
19.10.2018 21:00:00 10,9 10,4 - - 0,0
19.10.2018 20:00:00 10,7 9,9 - - 0,0
19.10.2018 19:00:00 11,2 10,2 - - 0,0
19.10.2018 18:00:00 11,4 10,2 - - 0,0
19.10.2018 17:00:00 11,4 10,5 - - 0,0
19.10.2018 16:00:00 11,1 10,4 - - 0,0
19.10.2018 15:00:00 11,3 10,8 - - 0,0
19.10.2018 14:00:00 11,3 10,7 - - 0,2
19.10.2018 13:00:00 11,2 10,1 - - 0,0
19.10.2018 12:00:00 12,0 8,9 - - 0,0
19.10.2018 11:00:00 11,1 8,6 - - 0,0
19.10.2018 10:00:00 10,5 8,7 10,7 12,0 0,2
19.10.2018 09:00:00 8,2 8,2 - - 0,0
19.10.2018 08:00:00 4,5 4,3 - - 0,0
19.10.2018 07:00:00 3,9 3,7 - - 0,0
19.10.2018 06:00:00 3,0 2,8 - - 0,0
19.10.2018 05:00:00 3,8 3,7 - - 0,0
19.10.2018 04:00:00 3,2 3,0 - - 0,0
19.10.2018 03:00:00 2,1 1,9 - - 0,0
19.10.2018 02:00:00 1,0 0,6 - - 0,0
19.10.2018 01:00:00 1,3 0,9 - - 0,0
19.10.2018 00:00:00 2,1 1,7 - - 0,0
18.10.2018 23:00:00 2,5 2,0 - - 0,0
18.10.2018 22:00:00 3,5 2,9 - - 0,0
18.10.2018 21:00:00 4,8 3,9 - - 0,0
18.10.2018 20:00:00 5,6 4,6 - - 0,0
18.10.2018 19:00:00 5,8 4,7 - - 0,0
18.10.2018 18:00:00 7,2 4,3 - - 0,0
18.10.2018 17:00:00 10,5 4,8 - - 0,0
18.10.2018 16:00:00 12,3 4,6 - - 0,0
18.10.2018 15:00:00 11,3 6,2 - - 0,0
18.10.2018 14:00:00 10,6 7,2 - - 0,0
18.10.2018 13:00:00 10,7 7,9 - - 0,0
18.10.2018 12:00:00 8,7 7,0 - - 0,0
18.10.2018 11:00:00 5,9 5,7 - - 0,0
18.10.2018 10:00:00 3,5 3,4 11,2 12,0 0,0
18.10.2018 09:00:00 3,0 2,9 - - 0,0
18.10.2018 08:00:00 2,5 2,4 - - 0,0
18.10.2018 07:00:00 0,9 0,8 - - 0,0
18.10.2018 06:00:00 0,3 0,1 - - 0,0
18.10.2018 05:00:00 0,1 -0,2 - - 0,0
18.10.2018 04:00:00 0,5 0,2 - - 0,0
18.10.2018 03:00:00 1,1 0,9 - - 0,0
18.10.2018 02:00:00 1,3 0,9 - - 0,0
18.10.2018 01:00:00 1,9 1,5 - - 0,0
18.10.2018 00:00:00 2,8 2,5 - - 0,0
17.10.2018 23:00:00 3,3 2,8 - - 0,0
17.10.2018 22:00:00 4,1 3,4 - - 0,0
17.10.2018 21:00:00 5,1 4,4 - - 0,0
17.10.2018 20:00:00 5,8 4,6 - - 0,0
17.10.2018 19:00:00 8,1 5,5 - - 0,0
17.10.2018 18:00:00 9,5 5,2 - - 0,0
17.10.2018 17:00:00 11,1 5,5 - - 0,0
17.10.2018 16:00:00 11,5 7,0 - - 0,0
17.10.2018 15:00:00 12,5 7,4 - - 0,0
17.10.2018 14:00:00 12,4 7,2 - - 0,0
17.10.2018 13:00:00 11,9 8,5 - - 0,0
17.10.2018 12:00:00 11,8 9,5 - - 0,0
17.10.2018 11:00:00 11,4 9,6 - - 0,0
17.10.2018 10:00:00 10,2 9,8 11,7 12,4 0,0
17.10.2018 09:00:00 8,5 8,2 - - 0,0
17.10.2018 08:00:00 7,6 7,3 - - 0,0
17.10.2018 07:00:00 8,4 7,8 - - 0,0
17.10.2018 06:00:00 9,8 8,9 - - 0,0
17.10.2018 05:00:00 10,0 9,3 - - 0,0
17.10.2018 04:00:00 10,8 10,5 - - 0,0
17.10.2018 03:00:00 10,5 10,3 - - 0,0
17.10.2018 02:00:00 9,3 8,9 - - 0,0
17.10.2018 01:00:00 10,0 9,6 - - 0,0
17.10.2018 00:00:00 10,4 9,8 - - 0,0
16.10.2018 23:00:00 12,0 11,4 - - 0,0
16.10.2018 22:00:00 12,7 12,1 - - 0,0
16.10.2018 21:00:00 12,9 12,2 - - 0,0
16.10.2018 20:00:00 12,8 12,3 - - 0,0
16.10.2018 19:00:00 12,7 12,1 - - 0,0
16.10.2018 18:00:00 12,5 11,9 - - 0,4
16.10.2018 17:00:00 12,3 11,9 - - 1,8
16.10.2018 16:00:00 12,0 11,5 - - 1,6
16.10.2018 15:00:00 11,6 10,6 - - 0,6
16.10.2018 14:00:00 13,2 10,7 - - 0,0
16.10.2018 13:00:00 14,0 11,8 - - 0,0
16.10.2018 12:00:00 13,4 12,0 - - 0,0
16.10.2018 11:00:00 13,2 11,7 - - 0,0
16.10.2018 10:00:00 12,3 11,4 11,4 12,5 0,0
16.10.2018 09:00:00 11,8 11,2 - - 0,4
16.10.2018 08:00:00 11,2 10,8 - - 0,4
16.10.2018 07:00:00 10,7 10,5 - - 0,2

tt = Temperatura
td = dewpoint
tt -20cm = Temperatura -20cm
tt -100cm = Temperatura -100cm
rr = precipitazioni

Stazioni seguenti

WeatherPro
AMSI
MeteoEarth